Elk City, ID

7:11 PM PDT on August 30, 2016 (GMT -0700)
Lowell

Weather History for KP69 - March, 2013

Change the Weather History Date:

Friday, March 29, 2013

  Actual Average Record
Temperature  
Mean Temperature 50 °F -  
Max Temperature 57 °F 54 °F 66 °F (2007)
Min Temperature 44 °F 33 °F 28 °F (1998)
Degree Days  
Heating Degree Days 14    
Moisture  
Dew Point 44 °F    
Average Humidity 88    
Maximum Humidity 97    
Minimum Humidity 62    
Precipitation  
Precipitation 0.07 in - - ()
Sea Level Pressure  
Sea Level Pressure 30.24 in    
Wind  
Wind Speed 0 mph (South)    
Max Wind Speed 7 mph    
Max Gust Speed -    
Averages and records for this station are not official NWS values.
T = Trace of Precipitation, MM = Missing Value Source: NWS Daily Summary

Daily Weather History Graph

Daily Weather History Graph

Search for Another Location

Airport or City:

Trip Planner

Search our weather history database for the weather conditions in past years. The results will help you decide how hot, cold, wet, or windy it might be!

Date:

Astronomy

Mar. 29, 2013 Rise Set
Actual Time 7:27 AM MDT 8:07 PM MDT
Civil Twilight 6:57 AM MDT 8:37 PM MDT
Nautical Twilight 6:21 AM MDT 9:13 PM MDT
Astronomical Twilight 5:44 AM MDT 9:51 PM MDT
Moon 11:24 PM MDT (3/29) 8:29 AM MDT (3/29)
Length of Visible Light 13h 40m
Length of Day
12h 40m
Waning Gibbous, 93% of the Moon is Illuminated
Mar 29
Waning Gibbous
Apr 2
Last Quarter
Apr 10
New
Apr 18
First Quarter
Apr 25
Full

Hourly Weather History & Observations

Time (MDT) Temp. Windchill Dew Point Humidity Pressure Visibility Wind Dir Wind Speed Gust Speed Precip Events Conditions
12:52 AM 45.0 °F - 43.0 °F 93% 30.17 in - Calm Calm - N/A   Unknown
1:52 AM 45.0 °F - 43.0 °F 93% 30.16 in - Calm Calm - N/A   Unknown
2:52 AM 45.0 °F - 43.0 °F 93% 30.17 in - Calm Calm - N/A   Unknown
3:52 AM 44.1 °F - 43.0 °F 96% 30.17 in - Calm Calm - N/A   Unknown
4:52 AM 44.1 °F - 42.1 °F 93% 30.18 in - Calm Calm - 0.02 in   Unknown
5:52 AM 44.1 °F - 43.0 °F 96% 30.21 in - Calm Calm - N/A   Unknown
6:52 AM 44.1 °F - 43.0 °F 96% 30.22 in - Calm Calm - 0.01 in   Unknown
7:52 AM 44.1 °F - 43.0 °F 96% 30.24 in - Calm Calm - 0.02 in   Unknown
8:52 AM 44.1 °F - 43.0 °F 96% 30.26 in - Calm Calm - N/A   Unknown
9:52 AM 45.0 °F - 44.1 °F 97% 30.27 in - Calm Calm - N/A   Unknown
10:52 AM 46.9 °F - 44.1 °F 90% 30.27 in - Calm Calm - N/A   Unknown
11:52 AM 46.9 °F - 45.0 °F 93% 30.27 in - Calm Calm - 0.01 in   Unknown
12:52 PM 52.0 °F - 46.0 °F 80% 30.26 in - Variable 3.5 mph - N/A   Unknown
1:52 PM 53.1 °F - 46.0 °F 77% 30.25 in - Calm Calm - N/A   Unknown
2:52 PM 52.0 °F - 46.9 °F 83% 30.24 in - Calm Calm - N/A   Unknown
3:52 PM 57.9 °F - 48.0 °F 70% 30.21 in - Calm Calm - N/A   Unknown
4:52 PM 54.0 °F - 41.0 °F 62% 30.25 in - NNE 6.9 mph - N/A   Unknown
5:52 PM 54.0 °F - 44.1 °F 69% 30.24 in - Calm Calm - N/A   Unknown
6:52 PM 52.0 °F - 44.1 °F 74% 30.24 in - Calm Calm - N/A   Unknown
7:52 PM 48.9 °F - 45.0 °F 86% 30.24 in - Calm Calm - N/A   Unknown
8:52 PM 46.9 °F - 44.1 °F 90% 30.26 in - Calm Calm - N/A   Unknown
9:52 PM 45.0 °F - 42.1 °F 90% 30.28 in - Calm Calm - N/A   Unknown
10:52 PM 45.0 °F 42.6 °F 43.0 °F 93% 30.30 in - NNW 4.6 mph - N/A   Unknown
11:52 PM 44.1 °F - 43.0 °F 96% 30.31 in - Calm Calm - 0.01 in   Unknown